Location: Cortada Guamacho
(10.5667°N, 67.0833°W)
Time: 22:16:53
(UTC+00:00)

Hubble Space Telescope - Visible Passes

Search period start: 04 December 2022 00:00
Search period end: 14 December 2022 00:00
Orbit: 530 x 534 km, 28.5° (Epoch: 04 December)

Date Brightness Start Highest point End Pass type
(mag) Time Alt. Az. Time Alt. Az. Time Alt. Az.
04 Dec 0.6 08:59:03 73° SW 08:59:23 82° SSE 09:03:28 10° ENE visible
05 Dec 1.7 08:48:06 40° NE 08:48:06 40° NE 08:50:50 10° ENE visible
06 Dec 3.0 08:36:57 18° NE 08:36:57 18° NE 08:38:08 10° NE visible
07 Dec 2.9 10:01:31 10° NW 10:02:59 12° NNW 10:04:27 10° N visible
